Location: Bletchingley
(51.2333°N, 0.1000°W)
Time: 00:28:06
(UTC+00:00)

NOSS 3-2 (C) - Visible Passes

Search period start: 23 January 2021 00:00
Search period end: 02 February 2021 00:00
Orbit: 789 x 1424 km, 63.4° (Epoch: 09 January)

Date Brightness Start Highest point End Pass type
(mag) Time Alt. Az. Time Alt. Az. Time Alt. Az.
23 Jan 4.8 06:21:49 10° S 06:27:07 42° ESE 06:33:11 10° NE visible
24 Jan 5.4 05:38:03 10° S 05:42:45 27° ESE 05:48:00 10° ENE visible
25 Jan 6.0 04:54:54 10° SSE 04:58:31 17° ESE 05:02:24 10° ENE visible
25 Jan 3.6 06:42:27 10° SW 06:48:11 79° SE 06:54:53 10° NE visible
26 Jan 4.2 05:58:02 10° SSW 06:03:35 54° ESE 06:09:57 10° NE visible
27 Jan 4.8 05:14:00 10° S 05:19:07 36° ESE 05:24:55 10° NE visible
27 Jan 3.6 07:03:50 10° WSW 07:09:39 63° NW 07:16:28 10° NE visible
28 Jan 5.5 04:30:26 10° SSE 04:34:49 23° ESE 04:39:36 10° ENE visible
28 Jan 3.4 06:19:00 10° SW 06:24:47 85° NW 06:31:35 10° NE visible
29 Jan 5.9 03:47:44 10° SE 03:50:38 14° ESE 03:53:41 10° ENE visible
29 Jan 3.7 05:34:24 10° SSW 05:40:05 69° SE 05:46:41 10° NE visible
30 Jan 4.3 04:51:37 18° S 04:55:32 46° ESE 05:01:43 10° NE visible
30 Jan 3.7 06:40:36 10° WSW 06:46:24 53° NNW 06:53:10 10° NE visible
31 Jan 4.9 04:09:01 24° SSE 04:11:08 30° ESE 04:16:35 10° ENE visible
31 Jan 3.4 05:56:30 15° WSW 06:01:27 70° NW 06:08:16 10° NE visible
01 Feb 5.4 03:26:14 19° ESE 03:26:53 19° ESE 03:31:08 10° ENE visible
01 Feb 3.4 05:13:43 32° SW 05:16:39 85° SE 05:23:24 10° NE visible
